Terminal Aerodrome Forecast
Issued by NWS Sterling, VA

Current Version | Previous Version | Graphics & Text | Print | Product List | Glossary On
Versions: 1 2 3 4 5 6 7 8 9 10 11 12 13 14 15 16 17 18 19 20 21 22 23 24 25
000
FTUS41 KLWX 161900 AAA
TAFDCA
TAF AMD
KDCA 161957Z 1620/1718 16006KT 1 1/2SM RA SCT017 OVC060
     FM162100 18007KT 3SM -SHRA OVC015
     FM162300 19006KT P6SM BKN015
     FM170300 24004KT P6SM BKN050
     FM170500 26006KT P6SM SCT050
     FM171400 28010G18KT P6SM SCT250=

USA.gov is the U.S. government's official web portal to all federal, state and local government web resources and services.